Simultaneous Nadir Overpasses (SNOs) Predictions

Prediction of SNOs between METOP-A and TERRA Satellite Orbit:

Table of predicted SNOs for the next 14.0 days since TLE Epoch: 3/29/2019
Index Date (METOP-A) Time (METOP-A) Lat,Lon (METOP-A) SZA (METOP-A ) Date (TERRA) Time (TERRA) Lat,Lon (TERRA) SZA (TERRA ) Distance(km) Time Diff (sec)
1 03/31/2019 22:13:27 81.45,-103.25 80.09 03/31/2019 22:14:07 81.46,-103.11 80.13 2.55 40
2 03/31/2019 23:04:07 -81.45, 64.33 99.90 03/31/2019 23:03:34 -81.46, 64.47 99.89 2.51 33
3 04/03/2019 17:47:41 81.45, -36.94 79.02 04/03/2019 17:48:23 81.44, -36.99 79.04 0.96 42
4 04/03/2019 18:38:21 -81.45, 130.68 100.96 04/03/2019 18:37:50 -81.44, 130.62 100.99 1.21 31
5 04/06/2019 13:21:54 81.45, 29.36 77.97 04/06/2019 13:22:37 81.45, 29.49 78.00 2.16 43
6 04/06/2019 14:12:34 -81.45,-162.97 102.01 04/06/2019 14:12:04 -81.45,-162.89 102.02 1.41 30
7 04/09/2019 08:56:07 81.45, 96.05 76.97 04/09/2019 08:56:52 81.45, 95.92 76.97 2.28 45
8 04/09/2019 09:46:48 -81.45, -96.63 103.05 04/09/2019 09:46:19 -81.45, -96.44 103.04 3.25 29
9 04/12/2019 04:30:21 81.45, 162.34 75.94 04/12/2019 04:31:07 81.44, 162.30 75.96 0.90 46




NCC Satellite Simultaneous Nadir Overpasses (SNOs) Prediction Service
